カタログに戻る

ATLAS 5 CENTAUR DEB

運用中HEO
NORAD 44849·DEBRIS·🇺🇸 United States

打ち上げ Sep 17, 2014 から Cape Canaveral Space Force Station

Loading…

次のパス (今後24時間)

TLE

最新Source: Space-Track

元期: Sep 10, 2026, 05:39 UTC

1 44849U 14055CH  26253.23542167 -.00000059  00000-0  00000-0 0  9997
2 44849  21.3391  77.0361 5058387 284.4748  26.3076  1.95521549 50669

AllMySatでATLAS 5 CENTAUR DEBをリアルタイム追跡

Download on the App Store